QPF
0.03 0.02 0.02 0.02 0.02 0.02 0.02 0.02 0.02 0.02 0.02 0.02 0.02 0.01 0.01 0.01 0.01 0.01 0.03 0.02 0.03 0.05 0.07 0.08 0.07 0.07 0.06 0.05 0.05 0.05 0.06 0.05 0.03 0.03 0.04 0.04 0.04 0.04 0.04 0.05 0.05 0.04 0.04
0.03 0.04 0.03 0.03 0.03 0.04 0.03 0.04 0.03 0.02 0.03 0.02 0.03 0.03 0.02 0.01 0.01 0.00 0.01 0.02 0.03 0.04 0.05 0.07 0.08 0.08 0.08 0.07 0.06 0.04 0.04 0.05 0.04 0.04 0.04 0.03 0.03 0.03 0.04 0.05 0.05 0.04 0.04
0.05 0.04 0.04 0.04 0.04 0.05 0.06 0.04 0.04 0.03 0.03 0.02 0.02 0.03 0.03 0.01 0.01 0.00 0.01 0.01 0.02 0.03 0.04 0.05 0.06 0.08 0.08 0.08 0.08 0.06 0.05 0.05 0.05 0.04 0.04 0.03 0.04 0.04 0.04 0.05 0.05 0.04 0.04
0.05 0.06 0.05 0.05 0.05 0.04 0.04 0.04 0.05 0.04 0.03 0.02 0.02 0.02 0.02 0.01 0.01 0.00 0.01 0.01 0.02 0.02 0.03 0.04 0.04 0.06 0.07 0.07 0.09 0.09 0.08 0.06 0.05 0.04 0.04 0.03 0.04 0.04 0.05 0.05 0.04 0.03 0.03
0.07 0.07 0.07 0.06 0.06 0.05 0.04 0.04 0.05 0.05 0.03 0.02 0.02 0.02 0.02 0.01 0.01 0.01 0.02 0.02 0.03 0.03 0.03 0.03 0.03 0.04 0.06 0.07 0.08 0.09 0.08 0.08 0.05 0.04 0.04 0.04 0.04 0.04 0.05 0.06 0.05 0.03 0.03
0.07 0.07 0.07 0.07 0.06 0.05 0.04 0.04 0.03 0.04 0.04 0.03 0.03 0.02 0.02 0.02 0.01 0.01 0.02 0.02 0.03 0.03 0.03 0.02 0.02 0.03 0.04 0.06 0.08 0.08 0.08 0.09 0.08 0.06 0.04 0.07 0.07 0.05 0.05 0.07 0.06 0.04 0.04
0.06 0.07 0.08 0.07 0.06 0.05 0.04 0.04 0.03 0.03 0.03 0.02 0.02 0.02 0.02 0.02 0.02 0.01 0.01 0.02 0.03 0.03 0.02 0.02 0.03 0.02 0.03 0.05 0.07 0.09 0.10 0.09 0.08 0.08 0.06 0.08 0.12 0.09 0.08 0.09 0.07 0.06 0.04
0.05 0.06 0.08 0.06 0.05 0.04 0.03 0.03 0.03 0.03 0.04 0.03 0.02 0.01 0.01 0.01 0.02 0.02 0.03 0.02 0.03 0.02 0.02 0.02 0.02 0.01 0.01 0.02 0.05 0.08 0.12 0.11 0.08 0.07 0.06 0.06 0.17 0.17 0.11 0.08 0.06 0.06 0.04
0.06 0.06 0.06 0.05 0.04 0.03 0.02 0.03 0.03 0.03 0.03 0.02 0.01 0.01 0.01 0.01 0.01 0.01 0.03 0.03 0.02 0.02 0.02 0.01 0.02 0.01 0.01 0.02 0.04 0.05 0.06 0.06 0.06 0.07 0.06 0.05 0.14 0.18 0.15 0.09 0.05 0.06 0.05
0.09 0.06 0.04 0.03 0.02 0.02 0.02 0.02 0.03 0.03 0.02 0.02 0.02 0.01 0.01 0.00 0.00 0.01 0.01 0.03 0.02 0.01 0.01 0.01 0.01 0.01 0.02 0.04 0.05 0.04 0.04 0.03 0.03 0.03 0.04 0.04 0.07 0.10 0.13 0.09 0.07 0.05 0.04
0.07 0.06 0.04 0.04 0.04 0.03 0.03 0.02 0.02 0.03 0.03 0.02 0.01 0.01 0.01 0.01 0.00 0.00 0.00 0.01 0.02 0.02 0.02 0.02 0.01 0.01 0.02 0.03 0.03 0.03 0.02 0.02 0.01 0.02 0.03 0.03 0.03 0.05 0.05 0.06 0.06 0.05 0.04
0.07 0.06 0.05 0.04 0.05 0.05 0.05 0.04 0.03 0.03 0.03 0.03 0.02 0.02 0.03 0.03 0.02 0.01 0.01 0.01 0.02 0.02 0.02 0.02 0.02 0.02 0.02 0.02 0.02 0.01 0.01 0.02 0.02 0.01 0.03 0.04 0.03 0.03 0.04 0.04 0.05 0.05 0.05
0.08 0.07 0.05 0.05 0.06 0.07 0.06 0.05 0.04 0.04 0.03 0.02 0.02 0.02 0.03 0.02 0.02 0.02 0.01 0.01 0.01 0.02 0.03 0.02 0.02 0.02 0.01 0.01 0.01 0.01 0.02 0.03 0.02 0.02 0.02 0.03 0.04 0.02 0.02 0.03 0.03 0.04 0.04
0.05 0.06 0.06 0.05 0.04 0.04 0.05 0.05 0.04 0.03 0.02 0.02 0.02 0.03 0.03 0.02 0.03 0.03 0.02 0.02 0.01 0.02 0.02 0.03 0.03 0.02 0.01 0.01 0.01 0.02 0.02 0.02 0.01 0.01 0.02 0.02 0.03 0.03 0.01 0.01 0.02 0.02 0.02
0.03 0.05 0.05 0.06 0.05 0.04 0.05 0.05 0.04 0.04 0.03 0.02 0.02 0.03 0.02 0.03 0.03 0.03 0.03 0.02 0.02 0.02 0.02 0.03 0.03 0.02 0.01 0.01 0.02 0.02 0.02 0.02 0.01 0.01 0.01 0.01 0.01 0.02 0.01 0.01 0.01 0.01 0.01
0.03 0.03 0.03 0.04 0.05 0.05 0.05 0.05 0.04 0.04 0.03 0.03 0.02 0.01 0.01 0.02 0.04 0.03 0.03 0.03 0.02 0.03 0.02 0.02 0.02 0.02 0.01 0.01 0.02 0.02 0.01 0.01 0.01 0.01 0.01 0.01 0.02 0.01 0.00 0.01 0.01 0.00 0.01
0.02 0.02 0.03 0.03 0.04 0.05 0.05 0.05 0.05 0.03 0.02 0.03 0.02 0.01 0.01 0.02 0.03 0.03 0.03 0.03 0.03 0.03 0.03 0.02 0.01 0.01 0.01 0.01 0.01 0.01 0.01 0.01 0.01 0.01 0.02 0.02 0.02 0.02 0.01 0.01 0.01 0.02 0.01
0.02 0.03 0.03 0.03 0.04 0.04 0.03 0.03 0.03 0.03 0.02 0.02 0.02 0.01 0.01 0.02 0.02 0.03 0.04 0.04 0.04 0.03 0.02 0.02 0.02 0.02 0.01 0.01 0.01 0.01 0.02 0.01 0.01 0.01 0.02 0.01 0.02 0.02 0.02 0.02 0.02 0.02 0.02
0.03 0.03 0.05 0.04 0.04 0.03 0.02 0.02 0.03 0.03 0.02 0.02 0.02 0.01 0.02 0.02 0.02 0.02 0.04 0.04 0.04 0.03 0.03 0.02 0.01 0.01 0.01 0.01 0.01 0.01 0.02 0.01 0.01 0.01 0.02 0.02 0.02 0.01 0.01 0.02 0.02 0.02 0.03
0.04 0.05 0.06 0.05 0.03 0.03 0.03 0.03 0.02 0.02 0.02 0.02 0.02 0.01 0.01 0.02 0.02 0.02 0.03 0.03 0.03 0.02 0.02 0.02 0.01 0.01 0.01 0.01 0.01 0.01 0.01 0.02 0.01 0.01 0.02 0.02 0.02 0.02 0.01 0.02 0.02 0.02 0.03
0.02 0.03 0.04 0.04 0.03 0.03 0.03 0.02 0.03 0.04 0.03 0.02 0.01 0.01 0.01 0.02 0.02 0.02 0.02 0.02 0.03 0.03 0.03 0.03 0.02 0.02 0.01 0.01 0.01 0.01 0.01 0.01 0.02 0.01 0.01 0.02 0.02 0.01 0.01 0.01 0.02 0.02 0.03
0.01 0.01 0.02 0.03 0.03 0.02 0.02 0.02 0.02 0.02 0.02 0.02 0.00 0.00 0.01 0.01 0.01 0.01 0.02 0.02 0.03 0.02 0.02 0.02 0.02 0.02 0.02 0.01 0.01 0.01 0.01 0.01 0.01 0.01 0.01 0.02 0.02 0.02 0.01 0.01 0.02 0.03 0.04
0.02 0.01 0.02 0.02 0.02 0.01 0.02 0.02 0.02 0.02 0.02 0.02 0.01 0.01 0.01 0.01 0.01 0.01 0.01 0.02 0.03 0.03 0.02 0.01 0.01 0.02 0.02 0.02 0.02 0.01 0.01 0.01 0.02 0.01 0.01 0.01 0.02 0.02 0.01 0.01 0.02 0.03 0.05
0.03 0.02 0.02 0.01 0.01 0.01 0.01 0.01 0.02 0.01 0.02 0.02 0.02 0.02 0.02 0.01 0.01 0.01 0.01 0.01 0.01 0.02 0.03 0.02 0.02 0.02 0.03 0.03 0.03 0.03 0.02 0.02 0.02 0.02 0.02 0.01 0.01 0.02 0.02 0.01 0.01 0.01 0.03
0.02 0.02 0.02 0.01 0.01 0.01 0.00 0.01 0.01 0.01 0.01 0.01 0.02 0.02 0.03 0.03 0.03 0.02 0.02 0.01 0.01 0.01 0.03 0.03 0.03 0.03 0.03 0.04 0.03 0.03 0.03 0.03 0.02 0.02 0.02 0.02 0.01 0.01 0.02 0.01 0.01 0.02 0.02
0.02 0.02 0.02 0.02 0.01 0.01 0.01 0.01 0.02 0.01 0.01 0.01 0.02 0.02 0.02 0.02 0.03 0.03 0.02 0.01 0.01 0.01 0.01 0.02 0.03 0.03 0.02 0.03 0.03 0.02 0.01 0.02 0.01 0.01 0.01 0.01 0.01 0.01 0.01 0.01 0.01 0.01 0.01
MSLP
1011.46 1011.49 1011.45 1011.39 1011.33 1011.30 1011.33 1011.40 1011.49 1011.56 1011.59 1011.55 1011.43 1011.24 1011.01 1010.77 1010.54 1010.36 1010.23 1010.16 1010.12 1010.11 1010.09 1010.07 1010.02 1009.96 1009.89 1009.81 1009.73 1009.65 1009.58 1009.51 1009.45 1009.39 1009.35 1009.32 1009.32 1009.35 1009.40 1009.48 1009.57 1009.67 1009.76
1011.17 1011.21 1011.20 1011.18 1011.17 1011.20 1011.28 1011.39 1011.52 1011.63 1011.69 1011.68 1011.59 1011.43 1011.22 1010.98 1010.75 1010.55 1010.38 1010.26 1010.18 1010.12 1010.07 1010.03 1009.97 1009.90 1009.83 1009.75 1009.67 1009.58 1009.49 1009.40 1009.31 1009.23 1009.15 1009.08 1009.05 1009.03 1009.05 1009.10 1009.16 1009.23 1009.30
1010.80 1010.87 1010.91 1010.95 1011.01 1011.11 1011.25 1011.42 1011.59 1011.73 1011.82 1011.83 1011.77 1011.63 1011.43 1011.21 1010.97 1010.74 1010.54 1010.37 1010.23 1010.12 1010.03 1009.95 1009.87 1009.80 1009.73 1009.66 1009.59 1009.51 1009.42 1009.32 1009.21 1009.10 1008.99 1008.89 1008.81 1008.75 1008.72 1008.73 1008.75 1008.80 1008.86
1010.39 1010.48 1010.57 1010.68 1010.82 1010.99 1011.20 1011.42 1011.62 1011.80 1011.91 1011.95 1011.91 1011.80 1011.62 1011.40 1011.16 1010.92 1010.68 1010.47 1010.27 1010.10 1009.95 1009.83 1009.73 1009.66 1009.59 1009.54 1009.50 1009.44 1009.37 1009.28 1009.17 1009.04 1008.90 1008.76 1008.63 1008.52 1008.44 1008.39 1008.38 1008.39 1008.42
1009.93 1010.05 1010.19 1010.36 1010.58 1010.82 1011.09 1011.35 1011.59 1011.79 1011.93 1011.99 1011.98 1011.90 1011.76 1011.56 1011.34 1011.08 1010.82 1010.56 1010.32 1010.09 1009.89 1009.73 1009.60 1009.52 1009.47 1009.44 1009.43 1009.41 1009.38 1009.31 1009.20 1009.07 1008.90 1008.72 1008.54 1008.37 1008.22 1008.11 1008.04 1008.01 1008.01
1009.46 1009.59 1009.77 1010.00 1010.27 1010.57 1010.89 1011.19 1011.47 1011.69 1011.86 1011.95 1011.98 1011.94 1011.85 1011.69 1011.50 1011.26 1010.99 1010.70 1010.41 1010.13 1009.89 1009.68 1009.53 1009.44 1009.41 1009.41 1009.44 1009.46 1009.47 1009.43 1009.34 1009.20 1009.01 1008.79 1008.55 1008.31 1008.09 1007.91 1007.76 1007.67 1007.62
1008.98 1009.12 1009.32 1009.59 1009.91 1010.26 1010.61 1010.95 1011.25 1011.51 1011.70 1011.84 1011.92 1011.95 1011.91 1011.82 1011.67 1011.47 1011.21 1010.91 1010.60 1010.28 1010.00 1009.76 1009.59 1009.49 1009.46 1009.49 1009.55 1009.62 1009.66 1009.66 1009.58 1009.43 1009.22 1008.95 1008.65 1008.34 1008.03 1007.77 1007.55 1007.38 1007.27
1008.52 1008.65 1008.87 1009.16 1009.51 1009.89 1010.28 1010.65 1010.98 1011.26 1011.50 1011.69 1011.84 1011.94 1011.99 1011.98 1011.90 1011.74 1011.51 1011.23 1010.90 1010.57 1010.25 1009.99 1009.80 1009.69 1009.67 1009.71 1009.79 1009.89 1009.95 1009.97 1009.90 1009.74 1009.50 1009.18 1008.82 1008.43 1008.04 1007.68 1007.38 1007.14 1006.96
1008.09 1008.21 1008.43 1008.74 1009.11 1009.52 1009.93 1010.32 1010.68 1011.01 1011.29 1011.55 1011.77 1011.95 1012.09 1012.16 1012.16 1012.07 1011.89 1011.63 1011.31 1010.97 1010.64 1010.36 1010.15 1010.03 1010.00 1010.05 1010.13 1010.23 1010.30 1010.31 1010.23 1010.06 1009.78 1009.42 1008.99 1008.54 1008.07 1007.64 1007.25 1006.94 1006.70
1007.69 1007.81 1008.04 1008.36 1008.75 1009.17 1009.60 1010.02 1010.41 1010.77 1011.11 1011.42 1011.71 1011.98 1012.20 1012.35 1012.43 1012.40 1012.28 1012.06 1011.77 1011.44 1011.12 1010.83 1010.61 1010.47 1010.43 1010.45 1010.52 1010.59 1010.64 1010.63 1010.52 1010.32 1010.00 1009.60 1009.13 1008.62 1008.09 1007.60 1007.15 1006.78 1006.50
1007.34 1007.47 1007.71 1008.03 1008.43 1008.87 1009.31 1009.75 1010.17 1010.57 1010.95 1011.31 1011.66 1011.99 1012.28 1012.51 1012.65 1012.69 1012.62 1012.45 1012.20 1011.90 1011.59 1011.31 1011.08 1010.93 1010.86 1010.85 1010.88 1010.91 1010.92 1010.86 1010.71 1010.47 1010.12 1009.69 1009.18 1008.64 1008.09 1007.56 1007.08 1006.68 1006.36
1007.06 1007.20 1007.45 1007.79 1008.19 1008.64 1009.09 1009.54 1009.97 1010.39 1010.80 1011.20 1011.59 1011.96 1012.29 1012.57 1012.76 1012.85 1012.83 1012.71 1012.51 1012.26 1011.98 1011.72 1011.51 1011.35 1011.25 1011.19 1011.17 1011.15 1011.09 1010.98 1010.79 1010.50 1010.13 1009.68 1009.17 1008.62 1008.07 1007.54 1007.06 1006.65 1006.32
1006.85 1007.02 1007.28 1007.62 1008.03 1008.47 1008.93 1009.37 1009.81 1010.23 1010.64 1011.05 1011.45 1011.84 1012.19 1012.49 1012.71 1012.84 1012.87 1012.81 1012.66 1012.46 1012.24 1012.02 1011.82 1011.67 1011.55 1011.46 1011.38 1011.30 1011.18 1011.01 1010.76 1010.45 1010.06 1009.61 1009.12 1008.60 1008.07 1007.57 1007.12 1006.73 1006.41
1006.75 1006.92 1007.19 1007.54 1007.95 1008.38 1008.82 1009.25 1009.67 1010.08 1010.47 1010.87 1011.25 1011.63 1011.97 1012.27 1012.51 1012.66 1012.73 1012.72 1012.64 1012.51 1012.35 1012.18 1012.03 1011.89 1011.76 1011.65 1011.53 1011.39 1011.22 1011.00 1010.72 1010.39 1010.00 1009.57 1009.11 1008.64 1008.17 1007.72 1007.31 1006.96 1006.67
1006.73 1006.92 1007.20 1007.55 1007.93 1008.35 1008.77 1009.17 1009.56 1009.94 1010.30 1010.66 1011.01 1011.34 1011.66 1011.94 1012.17 1012.34 1012.45 1012.49 1012.47 1012.42 1012.34 1012.24 1012.14 1012.03 1011.93 1011.81 1011.67 1011.49 1011.28 1011.03 1010.73 1010.39 1010.03 1009.63 1009.23 1008.82 1008.41 1008.03 1007.68 1007.37 1007.11
1006.81 1007.01 1007.28 1007.61 1007.99 1008.38 1008.77 1009.14 1009.49 1009.82 1010.14 1010.45 1010.75 1011.04 1011.32 1011.57 1011.79 1011.96 1012.10 1012.19 1012.24 1012.26 1012.26 1012.24 1012.20 1012.15 1012.07 1011.97 1011.83 1011.64 1011.42 1011.16 1010.86 1010.54 1010.20 1009.86 1009.51 1009.17 1008.83 1008.52 1008.22 1007.96 1007.73
1006.94 1007.14 1007.41 1007.73 1008.09 1008.46 1008.82 1009.16 1009.47 1009.76 1010.04 1010.30 1010.55 1010.79 1011.02 1011.24 1011.44 1011.62 1011.77 1011.90 1012.01 1012.10 1012.17 1012.23 1012.26 1012.27 1012.24 1012.16 1012.04 1011.88 1011.66 1011.42 1011.14 1010.85 1010.55 1010.26 1009.97 1009.68 1009.42 1009.16 1008.91 1008.69 1008.48
1007.07 1007.27 1007.54 1007.86 1008.21 1008.56 1008.91 1009.22 1009.51 1009.77 1010.00 1010.22 1010.42 1010.62 1010.81 1011.01 1011.19 1011.36 1011.53 1011.69 1011.85 1011.99 1012.12 1012.24 1012.33 1012.39 1012.41 1012.38 1012.29 1012.16 1011.98 1011.76 1011.52 1011.27 1011.02 1010.77 1010.53 1010.31 1010.09 1009.88 1009.67 1009.48 1009.30
1007.15 1007.36 1007.64 1007.96 1008.32 1008.67 1009.01 1009.31 1009.58 1009.82 1010.02 1010.21 1010.38 1010.55 1010.72 1010.89 1011.06 1011.23 1011.41 1011.59 1011.77 1011.95 1012.12 1012.28 1012.41 1012.51 1012.57 1012.58 1012.54 1012.44 1012.30 1012.13 1011.93 1011.72 1011.51 1011.31 1011.12 1010.93 1010.75 1010.58 1010.41 1010.25 1010.09
1007.15 1007.37 1007.67 1008.02 1008.39 1008.75 1009.09 1009.40 1009.66 1009.88 1010.07 1010.24 1010.39 1010.55 1010.70 1010.86 1011.03 1011.20 1011.38 1011.57 1011.76 1011.95 1012.14 1012.31 1012.47 1012.59 1012.67 1012.71 1012.70 1012.65 1012.55 1012.42 1012.27 1012.10 1011.93 1011.77 1011.61 1011.46 1011.31 1011.17 1011.03 1010.90 1010.77
1007.06 1007.30 1007.63 1008.01 1008.40 1008.79 1009.14 1009.44 1009.70 1009.92 1010.10 1010.25 1010.40 1010.55 1010.70 1010.86 1011.03 1011.21 1011.40 1011.59 1011.78 1011.97 1012.15 1012.32 1012.47 1012.59 1012.68 1012.73 1012.74 1012.72 1012.66 1012.56 1012.45 1012.32 1012.19 1012.05 1011.92 1011.79 1011.67 1011.56 1011.46 1011.37 1011.28
1006.90 1007.18 1007.55 1007.95 1008.37 1008.77 1009.13 1009.43 1009.68 1009.88 1010.04 1010.19 1010.33 1010.48 1010.64 1010.82 1011.00 1011.20 1011.39 1011.59 1011.77 1011.95 1012.11 1012.26 1012.38 1012.49 1012.57 1012.62 1012.64 1012.63 1012.60 1012.54 1012.45 1012.35 1012.25 1012.13 1012.02 1011.92 1011.82 1011.74 1011.68 1011.63 1011.60
1006.76 1007.08 1007.48 1007.91 1008.34 1008.74 1009.08 1009.36 1009.58 1009.75 1009.89 1010.02 1010.16 1010.31 1010.48 1010.68 1010.89 1011.11 1011.32 1011.53 1011.71 1011.87 1012.02 1012.13 1012.23 1012.31 1012.36 1012.40 1012.42 1012.42 1012.40 1012.35 1012.29 1012.21 1012.12 1012.03 1011.93 1011.85 1011.78 1011.72 1011.70 1011.70 1011.72
1006.76 1007.11 1007.52 1007.96 1008.38 1008.75 1009.05 1009.28 1009.45 1009.57 1009.66 1009.76 1009.87 1010.02 1010.21 1010.43 1010.67 1010.92 1011.16 1011.39 1011.58 1011.74 1011.86 1011.96 1012.02 1012.07 1012.10 1012.12 1012.13 1012.13 1012.11 1012.08 1012.03 1011.96 1011.89 1011.80 1011.72 1011.64 1011.59 1011.56 1011.57 1011.61 1011.68
1007.00 1007.37 1007.78 1008.20 1008.58 1008.89 1009.12 1009.27 1009.35 1009.39 1009.41 1009.45 1009.53 1009.67 1009.85 1010.09 1010.37 1010.65 1010.93 1011.18 1011.39 1011.55 1011.67 1011.75 1011.79 1011.81 1011.83 1011.83 1011.83 1011.82 1011.81 1011.78 1011.74 1011.68 1011.61 1011.53 1011.45 1011.38 1011.33 1011.31 1011.34 1011.41 1011.51
1007.57 1007.94 1008.33 1008.70 1009.01 1009.23 1009.36 1009.39 1009.36 1009.29 1009.23 1009.19 1009.22 1009.32 1009.50 1009.75 1010.04 1010.35 1010.65 1010.93 1011.15 1011.33 1011.45 1011.52 1011.55 1011.56 1011.56 1011.55 1011.55 1011.54 1011.53 1011.51 1011.47 1011.42 1011.35 1011.27 1011.19 1011.11 1011.05 1011.03 1011.06 1011.13 1011.24
Thickness
5740 5739 5738 5737 5737 5736 5736 5735 5734 5733 5733 5732 5732 5732 5732 5732 5731 5731 5731 5731 5730 5729 5728 5727 5726 5725 5723 5722 5720 5718 5716 5714 5713 5712 5711 5710 5708 5707 5706 5704 5703 5702 5701
5739 5738 5737 5735 5735 5734 5734 5733 5732 5731 5731 5730 5730 5730 5730 5730 5730 5730 5730 5729 5729 5728 5727 5726 5725 5724 5722 5720 5719 5717 5715 5713 5712 5711 5709 5708 5707 5705 5704 5703 5701 5700 5699
5738 5736 5735 5734 5733 5732 5732 5731 5730 5729 5728 5727 5727 5727 5727 5728 5728 5728 5727 5727 5727 5727 5726 5726 5724 5723 5721 5719 5718 5716 5714 5712 5711 5709 5708 5706 5705 5704 5703 5701 5699 5697 5696
5737 5735 5734 5733 5732 5731 5730 5728 5727 5725 5724 5724 5724 5724 5725 5725 5725 5725 5725 5725 5725 5725 5724 5724 5723 5722 5720 5718 5717 5715 5713 5711 5709 5708 5706 5705 5703 5702 5701 5699 5697 5695 5694
5736 5734 5733 5732 5730 5729 5727 5726 5724 5722 5721 5720 5721 5721 5722 5722 5723 5723 5723 5723 5723 5722 5722 5722 5722 5720 5719 5717 5715 5714 5712 5710 5708 5706 5705 5703 5702 5700 5699 5697 5695 5693 5693
5735 5733 5731 5730 5728 5726 5725 5723 5721 5720 5719 5718 5718 5718 5718 5719 5720 5720 5720 5720 5720 5720 5720 5720 5720 5719 5717 5716 5714 5712 5710 5708 5707 5705 5703 5702 5700 5698 5697 5695 5693 5692 5691
5734 5732 5729 5728 5726 5724 5722 5721 5719 5716 5715 5715 5713 5712 5713 5715 5716 5717 5717 5717 5718 5718 5718 5717 5717 5716 5715 5714 5713 5711 5709 5707 5706 5704 5702 5701 5699 5697 5695 5694 5692 5691 5691
5732 5730 5728 5726 5724 5722 5719 5718 5716 5713 5712 5711 5709 5706 5704 5707 5711 5714 5714 5714 5715 5715 5715 5715 5714 5714 5713 5711 5711 5709 5707 5706 5704 5703 5702 5700 5698 5696 5694 5693 5692 5691 5690
5730 5728 5726 5724 5722 5720 5717 5716 5714 5711 5708 5708 5707 5704 5699 5698 5702 5707 5709 5710 5711 5712 5712 5712 5712 5711 5710 5708 5708 5707 5706 5704 5703 5702 5700 5699 5697 5695 5694 5693 5691 5690 5689
5727 5726 5724 5722 5720 5718 5715 5714 5712 5710 5707 5704 5704 5703 5702 5701 5698 5698 5703 5705 5707 5708 5709 5709 5709 5708 5707 5706 5705 5704 5703 5702 5701 5700 5698 5697 5695 5694 5692 5692 5690 5689 5688
5724 5723 5722 5720 5717 5715 5713 5712 5710 5708 5706 5704 5702 5701 5699 5698 5698 5696 5695 5699 5702 5704 5705 5706 5705 5705 5705 5704 5703 5702 5701 5700 5699 5697 5696 5695 5694 5692 5691 5690 5689 5688 5687
5721 5720 5719 5717 5715 5713 5711 5710 5708 5706 5704 5703 5701 5700 5699 5697 5696 5694 5693 5694 5695 5699 5702 5703 5703 5702 5702 5701 5701 5700 5699 5698 5697 5696 5695 5694 5692 5691 5690 5689 5688 5687 5686
5716 5716 5716 5714 5712 5711 5709 5708 5706 5704 5703 5701 5700 5699 5698 5697 5697 5695 5693 5691 5692 5695 5698 5700 5700 5700 5699 5699 5698 5698 5697 5696 5695 5695 5694 5692 5692 5690 5689 5688 5687 5686 5685
5714 5713 5712 5710 5709 5708 5707 5705 5703 5702 5701 5699 5698 5697 5696 5696 5695 5694 5692 5690 5688 5689 5692 5695 5697 5697 5697 5697 5696 5696 5695 5695 5694 5693 5692 5692 5691 5690 5689 5688 5686 5685 5684
5711 5709 5707 5706 5705 5705 5704 5702 5700 5699 5698 5697 5696 5695 5694 5694 5693 5692 5691 5691 5688 5685 5687 5690 5693 5695 5695 5694 5694 5694 5693 5693 5693 5692 5692 5691 5690 5689 5688 5687 5686 5685 5683
5707 5705 5703 5703 5702 5701 5700 5699 5697 5696 5695 5694 5693 5692 5691 5691 5691 5690 5689 5688 5688 5686 5685 5688 5689 5691 5691 5692 5692 5692 5692 5692 5691 5691 5691 5690 5690 5689 5688 5686 5685 5684 5682
5702 5700 5699 5698 5697 5697 5696 5694 5693 5692 5691 5690 5690 5689 5689 5688 5688 5687 5687 5686 5685 5684 5683 5685 5686 5688 5688 5689 5690 5690 5690 5690 5689 5689 5689 5689 5689 5688 5687 5685 5684 5683 5681
5698 5696 5695 5693 5692 5692 5691 5690 5688 5688 5687 5686 5685 5685 5685 5685 5684 5684 5683 5683 5682 5682 5682 5681 5683 5684 5685 5686 5686 5687 5688 5688 5687 5688 5688 5688 5688 5687 5685 5684 5683 5681 5680
5693 5692 5690 5689 5687 5686 5685 5684 5684 5683 5682 5682 5681 5681 5681 5681 5681 5680 5680 5680 5679 5680 5679 5679 5679 5680 5681 5681 5682 5683 5685 5685 5686 5686 5686 5686 5686 5685 5684 5683 5681 5680 5678
5688 5687 5685 5684 5683 5681 5680 5679 5679 5678 5677 5677 5677 5677 5677 5678 5678 5677 5677 5676 5676 5675 5675 5675 5676 5676 5677 5678 5678 5679 5680 5681 5682 5683 5683 5683 5683 5683 5682 5681 5680 5678 5677
5683 5681 5680 5678 5677 5676 5676 5675 5674 5673 5673 5672 5673 5673 5674 5674 5675 5674 5674 5673 5672 5672 5671 5672 5672 5672 5673 5673 5675 5676 5676 5677 5678 5679 5680 5681 5680 5680 5680 5679 5678 5677 5675
5676 5675 5674 5673 5672 5672 5671 5670 5669 5668 5668 5668 5667 5668 5669 5670 5670 5670 5670 5670 5670 5669 5669 5669 5669 5669 5670 5671 5672 5672 5672 5672 5673 5675 5676 5677 5677 5677 5678 5677 5677 5676 5674
5668 5667 5667 5667 5666 5666 5665 5665 5664 5663 5663 5663 5662 5662 5664 5665 5664 5665 5665 5666 5666 5667 5668 5668 5667 5667 5668 5669 5668 5668 5668 5669 5670 5672 5671 5673 5674 5674 5675 5675 5675 5674 5672
5660 5660 5661 5661 5660 5660 5659 5659 5658 5658 5658 5658 5658 5658 5658 5658 5659 5658 5659 5660 5662 5663 5664 5665 5665 5666 5666 5667 5666 5666 5666 5665 5666 5666 5667 5668 5670 5671 5673 5672 5672 5671 5670
5654 5654 5654 5653 5653 5653 5653 5652 5652 5651 5651 5652 5653 5653 5653 5653 5653 5653 5653 5654 5656 5658 5660 5660 5661 5662 5662 5662 5661 5660 5660 5660 5661 5663 5663 5663 5666 5666 5668 5669 5668 5668 5666
5647 5646 5646 5646 5646 5646 5646 5646 5645 5645 5645 5646 5647 5647 5647 5648 5648 5647 5648 5649 5650 5652 5653 5654 5655 5656 5657 5657 5657 5657 5657 5656 5657 5658 5659 5658 5660 5660 5661 5664 5663 5662 5661